Jacksonville, FL

4:53 AM EDT on September 29, 2016 (GMT -0400)
Jacksonville Naval Air Station

Weather History for KNIP - October, 2013

Change the Weather History Date:

Wednesday, October 16, 2013

  Actual Average Record
Temperature  
Mean Temperature 74 °F -  
Max Temperature 82 °F 77 °F 88 °F (2015)
Min Temperature 66 °F 63 °F 52 °F (2004)
Cooling Degree Days 9    
Growing Degree Days 24 (Base 50)    
Moisture  
Dew Point 66 °F    
Average Humidity 78    
Maximum Humidity 90    
Minimum Humidity 56    
Precipitation  
Precipitation 0.00 in - - ()
Sea Level Pressure  
Sea Level Pressure 29.97 in    
Wind  
Wind Speed 9 mph (North)    
Max Wind Speed 12 mph    
Max Gust Speed -    
Visibility 10 miles    
Events      
Averages and records for this station are not official NWS values.
T = Trace of Precipitation, MM = Missing Value Source: NWS Daily Summary

Daily Weather History Graph

Daily Weather History Graph

Search for Another Location

Airport or City:

Trip Planner

Search our weather history database for the weather conditions in past years. The results will help you decide how hot, cold, wet, or windy it might be!

Date:

Astronomy

Oct. 16, 2013 Rise Set
Actual Time 7:29 AM EDT 6:54 PM EDT
Civil Twilight 7:05 AM EDT 7:18 PM EDT
Nautical Twilight 6:37 AM EDT 7:46 PM EDT
Astronomical Twilight 6:09 AM EDT 8:14 PM EDT
Moon 5:26 PM EDT (10/16) 5:05 AM EDT (10/16)
Length of Visible Light 12h 13m
Length of Day
11h 24m
Waxing Gibbous, 94% of the Moon is Illuminated
Oct 16
Waxing Gibbous
Oct 18
Full
Oct 26
Last Quarter
Nov 3
New
Nov 10
First Quarter

Hourly Weather History & Observations

Time (EDT) Temp. Heat Index Dew Point Humidity Pressure Visibility Wind Dir Wind Speed Gust Speed Precip Events Conditions
12:53 AM 70.0 °F - 64.9 °F 84% 29.98 in 10.0 mi NNW 11.5 mph - N/A   Overcast
1:33 AM 69.1 °F - 64.9 °F 87% 29.98 in 10.0 mi NNW 9.2 mph - N/A   Mostly Cloudy
1:53 AM 69.1 °F - 64.9 °F 87% 29.97 in 10.0 mi NNW 9.2 mph - N/A   Mostly Cloudy
2:53 AM 69.1 °F - 64.0 °F 84% 29.97 in 10.0 mi NNW 11.5 mph - N/A   Mostly Cloudy
3:53 AM 68.0 °F - 64.0 °F 87% 29.96 in 10.0 mi North 10.4 mph - N/A   Overcast
4:53 AM 68.0 °F - 64.0 °F 87% 29.96 in 10.0 mi North 10.4 mph - N/A   Overcast
5:53 AM 68.0 °F - 64.0 °F 87% 29.96 in 10.0 mi North 10.4 mph - N/A   Mostly Cloudy
6:53 AM 68.0 °F - 64.0 °F 87% 29.96 in 10.0 mi North 9.2 mph - N/A   Mostly Cloudy
7:53 AM 66.9 °F - 64.0 °F 90% 29.97 in 10.0 mi North 10.4 mph - N/A   Mostly Cloudy
8:53 AM 69.1 °F - 64.9 °F 87% 29.99 in 9.0 mi North 8.1 mph - N/A   Mostly Cloudy
9:53 AM 71.1 °F - 64.9 °F 81% 30.00 in 10.0 mi North 8.1 mph - N/A   Mostly Cloudy
10:53 AM 73.9 °F - 66.9 °F 79% 30.00 in 10.0 mi NNW 10.4 mph - N/A   Mostly Cloudy
11:53 AM 78.1 °F - 68.0 °F 71% 30.00 in 10.0 mi NNW 10.4 mph - N/A   Mostly Cloudy
12:53 PM 80.1 °F 82.7 °F 68.0 °F 67% 29.98 in 10.0 mi North 8.1 mph - N/A   Mostly Cloudy
1:53 PM 82.0 °F 84.5 °F 66.9 °F 60% 29.96 in 10.0 mi North 8.1 mph - N/A   Mostly Cloudy
2:53 PM 82.9 °F 85.0 °F 66.0 °F 56% 29.94 in 10.0 mi NNE 8.1 mph - N/A   Mostly Cloudy
3:53 PM 81.0 °F 83.3 °F 66.9 °F 62% 29.94 in 10.0 mi NE 8.1 mph - N/A   Mostly Cloudy
4:53 PM 81.0 °F 83.8 °F 68.0 °F 65% 29.94 in 10.0 mi NE 9.2 mph - N/A   Mostly Cloudy
5:53 PM 79.0 °F - 68.0 °F 69% 29.94 in 10.0 mi ENE 11.5 mph - N/A   Mostly Cloudy
6:53 PM 77.0 °F - 66.9 °F 71% 29.94 in 10.0 mi NE 9.2 mph - N/A   Scattered Clouds
7:53 PM 75.9 °F - 68.0 °F 76% 29.96 in 10.0 mi NE 8.1 mph - N/A   Partly Cloudy
8:53 PM 75.0 °F - 68.0 °F 79% 29.97 in 10.0 mi NE 4.6 mph - N/A   Partly Cloudy
9:53 PM 73.9 °F - 68.0 °F 82% 29.99 in 10.0 mi ENE 4.6 mph - N/A   Partly Cloudy
10:53 PM 73.0 °F - 68.0 °F 84% 29.99 in 10.0 mi ENE 3.5 mph - N/A   Clear
11:53 PM 73.0 °F - 68.0 °F 84% 29.98 in 10.0 mi Calm Calm - N/A   Clear